This is the latest recevied weather packets stored in our database for station/object N5LSN. If no packets are shown the sender has not sent any weather packets the latest 10 day(s).
| Time | Temp. | Humidity | Pressure | Rain* | Wind** | Luminosity | Snow |
|---|---|---|---|---|---|---|---|
| 1777730221 | 15.56° C | 72% | 1020.8 hPa | 0 mm | - | 443 W/m² | - |
| 1777729919 | 15.56° C | 73% | 1020.9 hPa | 0 mm | - | 422 W/m² | - |
| 1777729615 | 15° C | 74% | 1020.7 hPa | 0 mm | - | 331 W/m² | - |
| 1777729312 | 15° C | 75% | 1020.8 hPa | 0 mm | - | 342 W/m² | - |
| 1777729008 | 15° C | 75% | 1020.7 hPa | 0 mm | - | 364 W/m² | - |
| 1777728705 | 14.44° C | 75% | 1020.7 hPa | 0 mm | - | 363 W/m² | - |
| 1777728402 | 13.89° C | 75% | 1020.5 hPa | 0 mm | - | 322 W/m² | - |
| 1777728099 | 13.89° C | 81% | 1020.6 hPa | 0 mm | - | 287 W/m² | - |
| 1777727796 | 13.33° C | 83% | 1020.4 hPa | 0 mm | - | 258 W/m² | - |
| 1777727493 | 12.78° C | 83% | 1020.5 hPa | 0 mm | - | 230 W/m² | - |
| 1777727190 | 12.78° C | 87% | 1020.2 hPa | 0 mm | - | 185 W/m² | - |
| 1777726888 | 12.22° C | 87% | 1020.3 hPa | 0 mm | - | 151 W/m² | - |
| 1777726584 | 11.67° C | 89% | 1020 hPa | 0 mm | - | 142 W/m² | - |
| 1777726282 | 11.11° C | 93% | 1020.2 hPa | 0 mm | - | 122 W/m² | - |
| 1777725978 | 10.56° C | 96% | 1019.9 hPa | 0 mm | - | 54 W/m² | - |
| 1777725675 | 10° C | 98% | 1020.2 hPa | 0 mm | - | 46 W/m² | - |
| 1777725374 | 9.44° C | 99% | 1020 hPa | 0 mm | - | 45 W/m² | - |
| 1777725070 | 8.89° C | 99% | 1019.6 hPa | 0 mm | - | 42 W/m² | - |
| 1777724767 | 8.33° C | 99% | 1019.9 hPa | 0 mm | - | 40 W/m² | - |
| 1777724463 | 7.78° C | 99% | 1019.6 hPa | 0 mm | - | 38 W/m² | - |
| 1777724161 | 7.78° C | 99% | 1019.7 hPa | 0 mm | - | 36 W/m² | - |
| 1777723853 | 7.22° C | 99% | 1019.3 hPa | 0 mm | - | 33 W/m² | - |
| 1777723549 | 7.22° C | 99% | 1019.4 hPa | 0 mm | - | 31 W/m² | - |
| 1777723246 | 7.22° C | 99% | 1019.4 hPa | 0 mm | - | 28 W/m² | - |
| 1777722945 | 6.67° C | 99% | 1019.3 hPa | 0 mm | - | 25 W/m² | - |
* Rain latest hour (hover to see other rain measurements)
** Current wind speed in m/s (hover to see current wind gust speed)